Weather in Emetsk

Russia / Arkhangel'skaya Oblast'     63°28′15″N   41°46′40″E
temp.,
°C
wind,
m/s
gust,
m/s
humid.,
%
clouds,
%
prec.,
mm/h
press.,
hPa
HPBL,
m
4 march, thu
thu400:00−10nnw129778 0.0 99321
03:00−11nnw249780 0.1 994119
06:00−12n269795 0.1 993159
09:00−11n269394 0.2 995271
12:00−9n368283 0.0 995667
15:00−10nnw358692 0.1 995743
18:00−12nnw2795100 0.1 996304
21:00−17nnw259695 0.1 997106
5 march, fri
fri500:00−20nnw239841 0.0 99856
03:00−20nw249865 0.1 1000122
06:00−18nnw269695 0.1 1001250
09:00−17nnw259491 0.1 1002263
12:00−14nnw3587100 0.0 1004604
15:00−13nnw3585100 0.1 1006775
18:00−16nnw2395100 0.1 100787
21:00−19nw249798 0.1 100989
6 march, sat
sat600:00−21nw129638 0.0 101020
03:00−19wsw229869 0.1 101052
06:00−20w2299100 0.1 101024
09:00−17sw1296100 0.1 1009119
12:00−12sw249299 0.2 1007349
15:00−9ssw3590100 0.3 1006498
18:00−12s2696100 0.1 1003173
21:00−15sse379794 0.1 1001145
7 march, sun
sun700:00−15sse499591 0.0 998251
03:00−15se4129395 0.0 995362
06:00−14se51292100 0.1 992528
09:00−13ese51193100 0.4 991621
12:00−11ese5992100 0.6 992716
15:00−10ese4889100 1.1 993729
18:00−11ene3795100 0.3 995408
21:00−11ene4993100 0.7 997627
8 march, mon
mon800:00−13ne41092100 0.2 999516
03:00−14ne41192100 0.4 1001551
06:00−16nne51091100 0.1 1003487
09:00−19nne51090100 0.1 1006355
12:00−16nne498643 0.0 1009452
15:00−15n488727 0.0 1011510
18:00−18n399489 0.0 1013334
21:00−22n379555 0.0 1016192